Regional Weather Roundup
Issued by NWS

Home | Current Version | Previous Version | Text Only | Print | Product List | Glossary Off
Versions: 1 2 3 4 5 6 7 8 9 10 11 12 13 14 15 16 17 18 19 20 21 22 23 24 25 26 27 28 29 30 31 32 33 34 35 36 37 38 39 40 41 42 43 44 45 46 47 48 49 50

000
ASUS45 KBOU 101410
RWRCO

WEATHER ROUNDUP FOR COLORADO
NATIONAL WEATHER SERVICE DENVER/BOULDER CO
800 AM MDT THU JUL 10 2014

NOTE: "FAIR" INDICATES FEW OR NO CLOUDS BELOW 12000 FEET WITH NO
SIGNIFICANT WEATHER AND/OR OBSTRUCTIONS TO VISIBILITY.

COZ001>005-013-030-031-101500-
...NORTHWEST COLORADO...

CITY           SKY/WX    TMP DP  RH WIND       PRES   REMARKS
CRAIG          SUNNY     55  48  77 CALM      30.21R
HAYDEN         SUNNY     61  43  51 E9        30.22S
MEEKER         SUNNY     62  47  57 CALM      30.22S
MOUNT WERNER   SUNNY     55  34  44 W7        30.52R
STEAMBOAT SPGS SUNNY     56  44  65 CALM      30.26R
WALDEN         SUNNY     55  45  67 SE6       30.30S
$$

COZ006>008-011-101500-
...WEST CENTRAL VALLEYS...

CITY           SKY/WX    TMP DP  RH WIND       PRES   REMARKS
GRAND JUNCTION SUNNY     75  47  36 SE9       30.12R
MONTROSE       MOSUNNY   71  47  42 SE9       30.21S
EAGLE          MOSUNNY   61  45  55 CALM      30.28R
RIFLE          MOSUNNY   65  44  46 E3        30.19R
DELTA          MOSUNNY   73  46  37 E7        30.18R
NUCLA          MOSUNNY   68  50  52 E6        30.25S
$$

COZ017>023-064>068-101500-
...SOUTHWEST COLORADO...

CITY           SKY/WX    TMP DP  RH WIND       PRES   REMARKS
DURANGO        SUNNY     61  49  64 E3        30.25S
CORTEZ         SUNNY     67  51  56 N6        30.20S
PAGOSA SPRINGS SUNNY     57  48  72 CALM      30.33R
TELLURIDE      SUNNY     55  45  67 CALM      30.42S
WOLF CREEK PAS NOT AVBL
$$

COZ009-010-012-014-032>034-037-058>063-101500-
...CENTRAL COLORADO...

CITY           SKY/WX    TMP DP  RH WIND       PRES   REMARKS
ASPEN          SUNNY     58  41  53 CALM      30.32S
BUENA VISTA    SUNNY     61  39  44 NW8       30.33S
COPPER MTN     SUNNY     54  36  50 W12       30.62R
BERTHOUD PASS  FAIR      45  32  61 N8G20     30.66R
COTTONWOOD PAS SUNNY     61  37  41 CALM      30.45S
GUNNISON       NOT AVBL
KREMMLING      SUNNY     54  43  66 CALM      30.33S
LEADVILLE      SUNNY     55  36  48 N5        30.45R
MONARCH PASS   SUNNY     43  37  81 W17       30.69
SALIDA         SUNNY     64  44  47 NW7       30.37R
SUNLIGHT       SUNNY     54  43  66 CALM      30.54R
WILKERSON PASS MOSUNNY   55  34  44 NW10G16   30.57R
$$

COZ069>075-101500-
...SAN LUIS VALLEY/SANGRE DE CRISTO MOUNTAINS...

CITY           SKY/WX    TMP DP  RH WIND       PRES   REMARKS
ALAMOSA        SUNNY     58  47  66 W6        30.32R
LA VETA PASS   SUNNY     50  43  76 SW7       30.46R
SAGUACHE       NOT AVBL
$$

COZ035-036-038>040-101500-
...NORTHERN COLORADO FRONT RANGE...

CITY           SKY/WX    TMP DP  RH WIND       PRES   REMARKS
DENVER INTL AP MOSUNNY   74  47  38 SW10      30.07R
DMNS CITY PARK   N/A     73  49  42 S2        30.06S
AURORA         MOSUNNY   71  48  44 SW9       30.10R
FRONT RANGE AP MOSUNNY   75  48  38 W12       30.08R
ERIE MUNI ARPT SUNNY     70  50  48 CALM      30.05R
BOULDER MUN AP SUNNY     72  46  40 CALM      30.06R
CENTENNIAL     MOSUNNY   76  42  29 SW9       30.10R
BROOMFIELD     MOSUNNY   75  50  41 SW5       30.09R
FORT COLLINS   SUNNY     68  55  64 CALM      30.05R
LONGMONT       SUNNY     74  55  50 CALM      30.06R
$$

COZ041-046-047-076>085-087-088-101500-
...PIKES PEAK/PALMER DIVIDE AND SOUTHERN FOOTHILLS...

CITY           SKY/WX    TMP DP  RH WIND       PRES   REMARKS
COLO. SPRINGS  MOSUNNY   76  44  32 NW10      30.13R
A. F. ACADEMY  SUNNY     74  43  33 N9        30.15S
ELLICOTT       NOT AVBL
FALCON         SUNNY     74  42  31 NW7       30.19R
FORT CARSON    SUNNY     72  48  42 NE5       30.10R
LIMON          SUNNY     70  53  54 E8        30.09R
MONUMENT HILL  SUNNY     73  39  29 W8        30.19R
TRINIDAD       SUNNY     72  47  40 W5        30.13R
$$

COZ042>045-048>051-090-091-101500-
...NORTHEAST COLORADO...

CITY           SKY/WX    TMP DP  RH WIND       PRES   REMARKS
GREELEY ARPT   SUNNY     64  52  63 CALM      30.03
AKRON          SUNNY     67  57  70 SE14      30.04R
BURLINGTON     MOSUNNY   66  61  84 SE15      30.05S
WRAY           CLOUDY    70  62  75 SE13G18   30.01F
STERLING       SUNNY     72  63  73 S7        30.01R
HOLYOKE        MOSUNNY   70  61  73 S14       30.01S
FORT MORGAN    SUNNY     68  54  60 SE3       30.03R
$$

COZ086-089-092>099-101500-
...SOUTHEAST COLORADO...

CITY           SKY/WX    TMP DP  RH WIND       PRES   REMARKS
PUEBLO         SUNNY     72  53  51 CALM      30.03R
LA JUNTA       SUNNY     71  51  49 N7        30.02R
LAMAR          SUNNY     73  53  49 E8        29.98R
SPRINGFIELD      N/A     74  53  48 S14       30.03R
$$


USA.gov is the U.S. government's official web portal to all federal, state and local government web resources and services.